Location: Oakley
(37.9974°N, 121.7125°W)
Time: 02:54:07
(UTC+00:00)

Cosmos 1980 Rocket - Pass Details

Date: 13 February 2026
Orbit: 828 x 848 km, 71.0° (Epoch: 7 March)

Event Time Altitude Azimuth Distance (km) Brightness Sun altitude
Exits shadow 12:59:39 27° 200° (SSW) 1,554 3.4 -24.1°
Maximum altitude 13:02:51 89° 112° (ESE) 833 2.1 -23.4°
Drops below altitude 10° 13:08:27 10° 23° (NNE) 2,439 4.9 -22.3°
Sets 13:10:53 0° 23° (NNE) 3,378 5.6 -21.8°
